Volver al catálogo

FENGYUN 1C DEB

ActivoSSO
NORAD 31985·DEBRIS·🇨🇳 China

Lanzado May 10, 1999 desde Taiyuan Satellite Launch Center

Loading…

Próximos Pases (próximas 24 horas)

TLE

EnvejeciendoSource: Space-Track

Época: Sep 9, 2026, 11:08 UTC

1 31985U 99025CPN 26252.46415277  .00000294  00000-0  13090-3 0  9995
2 31985  98.1909 140.6141 0150947 170.8394 189.5596 14.23324760994613

Sigue FENGYUN 1C DEB en tiempo real con AllMySat

Download on the App Store